Regional Weather Roundup
Issued by NWS Jackson, KY

Home | Current Version | Previous Version | Graphics & Text | Print | Product List | Glossary On
Versions: 1 2 3 4 5 6 7 8 9 10 11 12 13 14 15 16 17 18 19 20 21 22 23 24 25 26 27 28 29 30 31 32 33 34 35 36 37 38 39 40 41 42 43 44 45 46 47 48 49 50
000
ASUS43 KJKL 300410
RWRJKL

EAST KENTUCKY HOURLY WEATHER ROUNDUP
NATIONAL WEATHER SERVICE JACKSON KY
1200 AM EDT SUN AUG 30 2015

NOTE: "FAIR" INDICATES FEW OR NO CLOUDS BELOW 12,000 FEET WITH
NO SIGNIFICANT WEATHER AND/OR OBSTRUCTIONS TO VISIBILITY.

* THESE REPORTS ARE NOT UNDER NWS QUALITY CONTROL AND MAY NOT
  REPORT WEATHER SUCH AS PRECIPITATION AND FOG.

KYZ079-080-083-085-087-088-110-112-115-119-120-300500
...EASTERN KENTUCKY...

CITY           SKY/WX    TMP DP  RH WIND       PRES   REMARKS
JACKSON        CLEAR     73  63  70 SE3       30.14F
LONDON         MOCLDY    71  64  78 CALM      30.14F
SOMERSET*      PTCLDY    68  68 100 CALM      30.14S
MONTICELLO*    PTCLDY    69  69 100 CALM      30.15F
WILLIAMSBURG*  CLEAR     63  63 100 CALM      30.15S
MIDDLESBORO*   PTCLDY    67  65  94 CALM      30.16F
HARLAN APT*      N/A     64  64 100 MISG      30.17F
HAZARD APT*    CLEAR     66  66 100 SE3       30.15S
BLACK MTN*       N/A     63  57  82 SW7         N/A
PIKEVILLE APT* CLEAR     70  64  83 S6        30.15F
BIG SANDY*     CLEAR     70  66  86 CALM      30.14S
MOREHEAD APT*  CLEAR     70  66  88 SE5       30.14S
$$

KYZ035-036-041-042-044-050-067-078-099-300500
...CENTRAL KENTUCKY...

CITY           SKY/WX    TMP DP  RH WIND       PRES   REMARKS
MT STERLING*   CLEAR     68  68 100 S3        30.13F
FLEMING/MASON* CLEAR     70  64  83 S6        30.12S
DANVILLE*      PTCLDY    70  68  94 CALM      30.13S
RICHMOND*      PTCLDY    72  64  78 CALM      30.12S
LEXINGTON      CLEAR     72  67  84 S5        30.11F
FRANKFORT      CLEAR     73  65  75 S7        30.09S
$$

KYZ091>093-OHZ055-061-077-WVZ005-015-034-035-042-300500
...SOUTHERN OHIO/WEST VIRGINIA...

CITY           SKY/WX    TMP DP  RH WIND       PRES   REMARKS
COVINGTON      MOCLDY    72  67  84 S6        30.08S
COLUMBUS       CLOUDY    71  66  84 SE5       30.07F
DAYTON         CLOUDY    70  66  87 SW5       30.09S
WILMINGTON     MOCLDY    68  64  87 CALM      30.09S
HUNTINGTON     CLEAR     68  66  93 CALM      30.11S
CHARLESTON     PTCLDY    68  65  90 CALM      30.12F
PINEVILLE*     PTCLDY    63  63 100 MISG      30.23S FOG
BECKLEY        PTCLDY    66  58  75 SE6       30.22F
BLUEFIELD      PTCLDY    70  56  61 S3        30.24F
$$

VAZ002-007-008-TNZ017-027-036-066-071-300500
...SOUTHWEST VIRGINIA/EAST TENNESSEE...

CITY           SKY/WX    TMP DP  RH WIND       PRES   REMARKS
WISE*          MOCLDY    68  57  68 S5        30.24S
JONESVILLE*    MOCLDY    64  64 100 CALM      30.19S
ABINGDON*      MOCLDY    69  63  81 CALM      30.20F
BRISTOL        CLOUDY    68  66  93 CALM      30.18S
KNOXVILLE      CLOUDY    75  66  73 CALM      30.14S
OAK RIDGE      PTCLDY    74  65  73 CALM      30.15F
CROSSVILLE     MOCLDY    72  65  78 CALM      30.18S
NASHVILLE      PTCLDY    71  66  84 S6        30.10F
$$

...KEY TO REMARKS...
VSB - VISIBILITY IN MILES
WCI - WIND CHILL INDEX
HX  - HEAT INDEX

$$



USA.gov is the U.S. government's official web portal to all federal, state and local government web resources and services.